📊 Raw Sensor Data
Showing records 50951 to 50975 of 85,141 total
| ID | Distance (ft) | Battery V | Battery A | Int Temp (°F) | Int Humid (%) | Ext Temp (°F) | Solar V | RSSI | SNR | Time Stamp |
|---|---|---|---|---|---|---|---|---|---|---|
| 34203 | 15.1 | 4.11 | 31 | 39 | 37 | 42 | 4.50 | -75 | 7 | 03/06/2025 07:00 AM |
| 34202 | 15.1 | 4.05 | 7 | 37 | 38 | 38 | 4.50 | -75 | 8 | 03/06/2025 06:45 AM |
| 34201 | 15.1 | 3.93 | -16 | 37 | 38 | 37 | 4.40 | -75 | 8 | 03/06/2025 06:30 AM |
| 34200 | 15.2 | 3.95 | -5 | 37 | 38 | 36 | 0.80 | -75 | 8 | 03/06/2025 06:15 AM |
| 34199 | 15.1 | 4.01 | -5 | 38 | 38 | 41 | 0.10 | -75 | 8 | 03/06/2025 06:00 AM |
| 34198 | 15.1 | 3.95 | -5 | 37 | 39 | 40 | 0.00 | -75 | 8 | 03/06/2025 05:45 AM |
| 34197 | 15.1 | 4.01 | -5 | 37 | 39 | 37 | 0.00 | -75 | 8 | 03/06/2025 05:30 AM |
| 34196 | 15.1 | 4.01 | -5 | 40 | 38 | 41 | 0.00 | -75 | 8 | 03/06/2025 05:15 AM |
| 34195 | 15.1 | 3.95 | -5 | 40 | 38 | 42 | 0.00 | -75 | 8 | 03/06/2025 05:00 AM |
| 34194 | 15.1 | 3.95 | -5 | 40 | 38 | 42 | 0.00 | -75 | 9 | 03/06/2025 04:30 AM |
| 34193 | 15.1 | 3.95 | -5 | 40 | 38 | 42 | 0.00 | -76 | 9 | 03/06/2025 04:15 AM |
| 34192 | 15.1 | 3.95 | -5 | 40 | 39 | 42 | 0.00 | -74 | 8 | 03/06/2025 04:00 AM |
| 34191 | 15.1 | 4.01 | -5 | 41 | 38 | 42 | 0.00 | -75 | 9 | 03/06/2025 03:45 AM |
| 34190 | 15.1 | 3.96 | -5 | 42 | 38 | 43 | 0.00 | -75 | 7 | 03/06/2025 03:15 AM |
| 34189 | 15.1 | 3.96 | -5 | 42 | 38 | 43 | 0.00 | -74 | 8 | 03/06/2025 03:00 AM |
| 34188 | 15.1 | 3.96 | -5 | 42 | 38 | 44 | 0.00 | -73 | 8 | 03/06/2025 02:45 AM |
| 34187 | 15.1 | 4.02 | -5 | 43 | 38 | 44 | 0.00 | -73 | 8 | 03/06/2025 02:30 AM |
| 34186 | 15.1 | 4.02 | -5 | 43 | 38 | 44 | 0.00 | -74 | 7 | 03/06/2025 02:15 AM |
| 34185 | 15.1 | 3.96 | -5 | 43 | 38 | 45 | 0.00 | -75 | 8 | 03/06/2025 02:00 AM |
| 34184 | 15.1 | 4.02 | -5 | 43 | 38 | 45 | 0.00 | -74 | 8 | 03/06/2025 01:45 AM |
| 34183 | 15.1 | 4.02 | -5 | 44 | 38 | 45 | 0.00 | -73 | 9 | 03/06/2025 01:30 AM |
| 34182 | 15.1 | 3.96 | -5 | 44 | 38 | 45 | 0.00 | -73 | 9 | 03/06/2025 01:15 AM |
| 34181 | 15.1 | 3.96 | -5 | 44 | 38 | 45 | 0.10 | -74 | 8 | 03/06/2025 01:00 AM |
| 34180 | 15.1 | 4.02 | -5 | 44 | 38 | 45 | 0.00 | -74 | 8 | 03/06/2025 12:45 AM |
| 34179 | 15.1 | 3.96 | -5 | 44 | 38 | 46 | 0.00 | -74 | 7 | 03/06/2025 12:30 AM |